CW4326 Weather Reports


Display with metric or nautical units.
time (UTC)temp
F
wind
direction
speed
MPH
gust
MPH
rain 1hr
in
rain 24hr
in
rain mn
in
humidity
%
barometer
mb
20260507111605 55 81 0.0 3.0 0.00 0.05 0.00 74 1018.1
20260507111105 54 76 1.0 3.0 0.00 0.06 0.00 75 1018.2
20260507104104 53 120 0.0 0.0 0.00 0.08 0.00 74 1018.2
20260507103105 54 132 1.0 5.0 0.00 0.09 0.00 75 1018.2
20260507101105 53 64 2.0 3.0 0.00 0.10 0.00 77 1018.2
20260507100105 53 70 1.0 3.0 0.00 0.10 0.00 76 1018.1
20260507095105 53 69 0.0 1.0 0.00 0.10 0.00 76 1018.1
20260507092605 52 62 0.0 1.0 0.00 0.10 0.00 77 1018.1
20260507092105 52 62 0.0 3.0 0.00 0.10 0.00 77 1018.0
20260507090105 51 52 0.0 1.0 0.00 0.10 0.00 78 1018.0
20260507085605 51 52 1.0 3.0 0.00 0.10 0.00 79 1018.1
20260507085105 50 24 0.0 0.0 0.00 0.10 0.00 78 1018.0
20260507084605 50 24 0.0 0.0 0.00 0.10 0.00 78 1018.1
20260507082605 50 24 0.0 1.0 0.00 0.11 0.00 79 1018.0
20260507082105 50 24 0.0 0.0 0.00 0.11 0.00 80 1018.0
20260507081105 50 338 0.0 1.0 0.00 0.11 0.00 79 1017.9
20260507075605 50 106 0.0 1.0 0.00 0.11 0.00 81 1017.8
20260507075105 49 106 0.0 3.0 0.00 0.11 0.00 82 1017.8
20260507074604 49 106 0.0 1.0 0.00 0.11 0.00 82 1017.8
20260507074105 49 128 0.0 1.0 0.00 0.11 0.00 82 1017.7
20260507073605 49 133 0.0 2.0 0.00 0.11 0.00 83 1017.7
20260507072605 49 143 0.0 0.0 0.00 0.13 0.00 83 1017.5
20260507071104 48 143 0.0 2.0 0.00 0.16 0.00 85 1017.5
20260507070605 48 143 0.0 2.0 0.00 0.16 0.00 85 1017.5
20260507064605 48 147 0.0 0.0 0.00 0.17 0.00 88 1017.5
20260507063105 47 147 0.0 0.0 0.00 0.17 0.00 90 1017.5
20260507061105 46 147 0.0 0.0 0.00 0.23 0.00 90 1017.4
20260507060105 46 147 0.0 0.0 0.00 0.26 0.00 91 1017.3
20260507052605 44 243 0.0 0.0 0.00 0.30 0.00 91 1017.0
20260507051605 44 243 0.0 0.0 0.00 0.30 0.00 91 1017.0
20260507051107 44 243 0.0 0.0 0.00 0.30 0.00 91 1017.0
20260507050105 44 243 0.0 0.0 0.00 0.30 0.00 91 1017.0
20260507045605 44 243 0.0 0.0 0.00 0.30 0.00 91 1017.0
20260507045105 44 243 0.0 0.0 0.00 0.30 0.00 91 1016.9
20260507044105 44 243 0.0 0.0 0.00 0.30 0.00 91 1016.9
20260507043605 44 243 0.0 0.0 0.00 0.30 0.00 90 1016.9
20260507042605 44 46 0.0 0.0 0.00 0.30 0.00 90 1016.8
20260507040605 44 46 0.0 0.0 0.00 0.30 0.00 90 1016.8
20260507040105 44 46 0.0 0.0 0.00 0.30 0.00 90 1016.6
20260507035605 44 46 0.0 0.0 0.00 0.30 0.00 90 1016.6
20260507035104 44 46 0.0 0.0 0.00 0.30 0.00 90 1016.6
20260507034605 44 46 0.0 0.0 0.00 0.30 0.00 90 1016.5
20260507034105 44 46 0.0 0.0 0.00 0.30 0.00 90 1016.5
20260507025605 44 46 0.0 0.0 0.00 0.30 0.00 90 1016.4
20260507025105 44 46 0.0 0.0 0.00 0.30 0.00 90 1016.4
20260507024105 44 46 0.0 0.0 0.00 0.30 0.00 90 1016.4
20260507022605 44 46 0.0 0.0 0.00 0.30 0.00 89 1016.5
20260507021605 44 46 0.0 0.0 0.00 0.30 0.00 89 1016.5
20260507020605 44 46 0.0 0.0 0.00 0.30 0.00 89 1016.4
20260507014605 44 46 0.0 0.0 0.00 0.30 0.00 89 1016.4
20260507014105 44 46 0.0 0.0 0.00 0.30 0.00 89 1016.3
20260507013105 45 46 0.0 0.0 0.00 0.30 0.00 89 1016.3
20260507011605 45 46 0.0 0.0 0.00 0.30 0.00 88 1016.3
20260507011104 45 46 0.0 0.0 0.00 0.30 0.00 88 1016.3
20260507010605 45 46 0.0 0.0 0.00 0.30 0.00 88 1016.3
20260507005106 45 46 0.0 0.0 0.00 0.30 0.00 88 1016.3
20260507004605 45 46 0.0 0.0 0.00 0.30 0.00 88 1016.3
20260507004105 45 46 0.0 0.0 0.00 0.30 0.00 88 1016.2
20260507003605 45 46 0.0 0.0 0.00 0.30 0.00 88 1016.2
20260507003105 45 46 0.0 0.0 0.00 0.30 0.00 88 1016.2
20260507002605 45 46 0.0 0.0 0.00 0.30 0.00 88 1016.3
20260507001605 45 46 0.0 0.0 0.00 0.30 0.00 88 1016.3
20260507000605 45 46 0.0 0.0 0.00 0.30 0.00 88 1016.4
20260507000105 46 46 0.0 0.0 0.00 0.30 0.00 88 1016.4
20260506235105 46 46 0.0 0.0 0.00 0.30 0.00 88 1016.4
20260506234105 46 46 0.0 0.0 0.00 0.30 0.00 88 1016.4
20260506233105 46 46 0.0 0.0 0.00 0.30 0.00 88 1016.3
20260506231604 46 46 0.0 0.0 0.00 0.30 0.00 87 1016.2
20260506225105 47 46 0.0 1.0 0.00 0.30 0.30 87 1016.3
20260506223605 47 46 0.0 0.0 0.00 0.30 0.30 87 1016.3
20260506223105 47 46 0.0 0.0 0.00 0.30 0.30 87 1016.2
20260506221605 47 46 0.0 0.0 0.00 0.30 0.30 87 1016.2
20260506221105 47 46 0.0 0.0 0.00 0.30 0.30 86 1016.2
20260506220605 47 46 0.0 0.0 0.00 0.30 0.30 86 1016.2
20260506215605 47 46 0.0 0.0 0.00 0.30 0.30 86 1016.1
20260506215104 47 46 0.0 1.0 0.00 0.30 0.30 86 1016.1
20260506214105 47 46 0.0 0.0 0.00 0.30 0.30 86 1016.0
20260506213605 47 46 0.0 0.0 0.00 0.30 0.30 86 1016.0
20260506212105 47 46 0.0 0.0 0.00 0.30 0.30 85 1015.9
20260506211604 47 46 0.0 2.0 0.00 0.30 0.30 86 1015.9
20260506210105 47 45 0.0 1.0 0.00 0.30 0.30 85 1015.8
20260506204105 47 59 1.0 2.0 0.00 0.30 0.30 85 1015.8
20260506203104 47 72 0.0 3.0 0.00 0.30 0.30 85 1015.8
20260506201605 47 57 1.0 6.0 0.00 0.30 0.30 85 1015.7
20260506200605 47 33 0.0 1.0 0.00 0.30 0.30 85 1015.5
20260506200105 47 33 0.0 3.0 0.00 0.30 0.30 85 1015.4
20260506195605 48 53 0.0 3.0 0.00 0.30 0.30 85 1015.4
20260506194105 48 56 0.0 3.0 0.00 0.30 0.30 85 1015.2
20260506193104 48 64 0.0 3.0 0.00 0.30 0.30 85 1015.1
20260506192605 48 60 0.0 2.0 0.00 0.30 0.30 85 1015.1
20260506191105 48 71 2.0 8.0 0.00 0.30 0.30 85 1015.0
20260506190605 48 56 1.0 3.0 0.00 0.30 0.30 85 1014.9
20260506185105 48 44 1.0 7.0 0.00 0.30 0.30 86 1014.7
20260506184106 48 63 0.0 1.0 0.00 0.30 0.30 86 1014.7
20260506181605 49 63 0.0 3.0 0.00 0.30 0.30 85 1014.4
20260506180105 49 69 1.0 9.0 0.00 0.30 0.30 86 1014.3
20260506174105 49 64 1.0 5.0 0.00 0.30 0.30 86 1014.1
20260506173605 49 54 1.0 3.0 0.00 0.30 0.30 86 1014.0
20260506172105 49 51 2.0 8.0 0.00 0.30 0.30 87 1013.9
20260506171105 50 58 1.0 5.0 0.00 0.30 0.30 88 1013.9
20260506170105 50 68 0.0 5.0 0.00 0.30 0.30 88 1013.9
20260506165605 49 50 0.0 3.0 0.00 0.30 0.30 89 1013.8
20260506163106 49 75 3.0 9.0 0.00 0.30 0.30 90 1013.8
20260506162605 49 38 1.0 7.0 0.00 0.30 0.30 90 1013.8
20260506161105 49 47 0.0 3.0 0.00 0.30 0.30 90 1013.7
20260506160605 49 33 0.0 2.0 0.00 0.30 0.30 90 1013.8
20260506155605 50 66 1.0 6.0 0.00 0.30 0.30 91 1013.7
20260506154605 50 58 0.0 3.0 0.00 0.30 0.30 91 1013.7
20260506153105 50 69 0.0 1.0 0.01 0.30 0.30 91 1013.7
20260506151605 50 38 0.0 2.0 0.01 0.30 0.30 92 1013.6
20260506150105 50 349 0.0 2.0 0.02 0.30 0.30 92 1013.6
20260506145605 50 349 0.0 0.0 0.02 0.30 0.30 92 1013.6
20260506143605 50 349 0.0 0.0 0.01 0.29 0.29 92 1013.6
20260506143104 50 349 0.0 2.0 0.01 0.29 0.29 92 1013.6
20260506142105 50 349 0.0 1.0 0.01 0.29 0.29 92 1013.6
20260506140105 50 349 0.0 0.0 0.00 0.28 0.28 92 1013.6
20260506135604 50 349 0.0 1.0 0.00 0.28 0.28 92 1013.6
20260506135105 50 349 0.0 6.0 0.00 0.28 0.28 91 1013.6
20260506134605 51 346 0.0 1.0 0.00 0.28 0.28 91 1013.6
20260506134105 51 320 1.0 3.0 0.00 0.28 0.28 92 1013.5
20260506132605 51 354 0.0 1.0 0.00 0.28 0.28 92 1013.6
20260506132105 51 354 0.0 3.0 0.00 0.28 0.28 92 1013.6
20260506131605 50 314 0.0 1.0 0.00 0.28 0.28 92 1013.5
20260506130605 50 325 0.0 3.0 0.00 0.28 0.28 92 1013.6
20260506125605 50 354 0.0 0.0 0.00 0.28 0.28 92 1013.5
20260506125105 50 354 0.0 1.0 0.01 0.28 0.28 91 1013.6
20260506124605 50 354 0.0 2.0 0.01 0.28 0.28 91 1013.6
20260506123605 51 314 1.0 3.0 0.02 0.28 0.28 92 1013.5
20260506123105 51 314 0.0 3.0 0.02 0.28 0.28 92 1013.5
20260506121605 51 2 0.0 1.0 0.03 0.28 0.28 92 1013.5
20260506120605 50 357 0.0 0.0 0.04 0.28 0.28 92 1013.6
20260506120104 50 357 0.0 0.0 0.05 0.28 0.28 92 1013.5
20260506115605 50 357 0.0 3.0 0.06 0.28 0.28 92 1013.5
20260506115105 50 345 0.0 1.0 0.05 0.28 0.28 92 1013.6
20260506114605 50 345 0.0 1.0 0.05 0.28 0.28 92 1013.5